Location: Silverdale
(47.6506°N, 122.6941°W)
Time: 05:04:03
(UTC+00:00)

Altair - Pass Details

Date: 11 October 2022
Orbit: 1501 x 1682 km, 47.2° (Epoch: 05 December)

Event Time Altitude Azimuth Distance (km) Brightness Sun altitude
Rises 13:07:35 0° 261° (W) 4,753 - -13.7°
Reaches altitude 10° 13:10:36 10° 261° (W) 3,793 - -13.2°
Exits shadow 13:11:59 16° 261° (W) 3,365 8.6 -12.9°
Maximum altitude 13:20:21 87° 174° (S) 1,639 7.6 -11.5°
Drops below altitude 10° 13:30:28 10° 87° (E) 3,925 11.3 -9.8°
Sets 13:33:39 0° 87° (E) 4,925 12.6 -9.3°
